Weather in Ivano-franc

Ukraine / Lviv District     49˚55′13″N   23˚44′05″E
temp.,
°C
wind,
m/s
gust,
m/s
humid.,
%
clouds,
%
prec.,
mm/h
press.,
hPa
HPBL,
m
3 december, thu
thu323:00−4˚se4109411 0.0 1023354
02:00−5˚se3109519 0.0 1022300
05:00−5˚se4109658 0.0 1020273
08:00−5˚se5109569 0.0 1019290
11:00−2˚se5108494 0.0 1018340
14:00+1˚se5117893 0.0 1016387
17:00−1˚se5148835 0.0 1015362
20:00−1˚se5138849 0.0 1014341
4 december, fri
fri423:00se6139199 0.0 1014349
02:00−1˚se6139398 0.0 1013334
05:00−1˚se6139379 0.0 1011349
08:00−1˚se5139258 0.0 1011345
11:00+2˚se6138322 0.0 1011363
14:00+4˚se6137511 0.0 1010387
17:00+3˚se513910 0.0 1010332
20:00+3˚sse512912 0.0 1011220
5 december, sat
sat523:00+3˚se512900 0.0 1011213
02:00+3˚sse613900 0.0 1012270
05:00+3˚sse513910 0.0 1012263
08:00+4˚sse515952 0.0 1013359
11:00+6˚sse6138930 0.0 1014320
14:00+8˚se5138615 0.0 1014425
17:00+7˚se616890 0.0 1014443
20:00+6˚se716901 0.0 1016421
6 december, sun
sun623:00+6˚se716918 0.0 1016451
02:00+5˚se6159116 0.0 1017438
05:00+4˚se6159137 0.0 1017448
08:00+4˚se8158944 0.0 1017566
11:00+5˚se81582100 0.0 1017787
14:00+5˚se81577100 0.0 1016834
17:00+4˚se91679100 0.0 1015846
20:00+4˚se101779100 0.0 1015845
7 december, mon
mon723:00+3˚se101878100 0.0 1015791
02:00+3˚se9188195 0.0 1014705
05:00+3˚se8178198 0.0 1014695
08:00+4˚se8178197 0.0 1014677
11:00+4˚se81683100 0.4 1015598
14:00+3˚se81587100 1.1 1015555
17:00+3˚se61388100 0.8 1015589
20:00+4˚se61390100 3.8 1016612